Year,Month,Day,Hour,Minute,Value (Times are PST for windspeed in km/hr)
2009,09,03,00,00,0.00
2009,09,03,00,01,0.00
2009,09,03,00,02,0.00
2009,09,03,00,03,0.00
2009,09,03,00,04,0.00
2009,09,03,00,05,0.20
2009,09,03,00,06,0.00
2009,09,03,00,07,0.00
2009,09,03,00,08,0.00
2009,09,03,00,09,0.00
2009,09,03,00,10,0.00
2009,09,03,00,11,0.00
2009,09,03,00,12,0.00
2009,09,03,00,13,0.00
2009,09,03,00,14,0.00
2009,09,03,00,15,0.00
2009,09,03,00,16,0.00
2009,09,03,00,17,0.00
2009,09,03,00,18,0.00
2009,09,03,00,19,0.00
2009,09,03,00,20,0.00
2009,09,03,00,21,0.00
2009,09,03,00,22,0.00
2009,09,03,00,23,0.00
2009,09,03,00,24,0.00
2009,09,03,00,25,0.00
2009,09,03,00,26,0.00
2009,09,03,00,27,0.00
2009,09,03,00,28,0.00
2009,09,03,00,29,0.00
2009,09,03,00,30,0.00
2009,09,03,00,31,0.00
2009,09,03,00,32,0.00
2009,09,03,00,33,0.00
2009,09,03,00,34,0.00
2009,09,03,00,35,0.00
2009,09,03,00,36,0.00
2009,09,03,00,37,0.00
2009,09,03,00,38,0.00
2009,09,03,00,39,0.10
2009,09,03,00,40,0.10
2009,09,03,00,41,0.00
2009,09,03,00,42,0.00
2009,09,03,00,43,0.00
2009,09,03,00,44,0.00
2009,09,03,00,45,0.00
2009,09,03,00,46,0.00
2009,09,03,00,47,0.00
2009,09,03,00,48,0.00
2009,09,03,00,49,0.00
2009,09,03,00,50,0.00
2009,09,03,00,51,0.00
2009,09,03,00,52,0.00
2009,09,03,00,53,0.00
2009,09,03,00,54,0.00
2009,09,03,00,55,0.00
2009,09,03,00,56,0.00
2009,09,03,00,57,0.00
2009,09,03,00,58,0.00
2009,09,03,00,59,0.00
2009,09,03,01,00,0.00
2009,09,03,01,01,0.00
2009,09,03,01,02,0.00
2009,09,03,01,03,0.00
2009,09,03,01,04,0.00
2009,09,03,01,05,0.00
2009,09,03,01,06,0.00
2009,09,03,01,07,0.00
2009,09,03,01,08,0.00
2009,09,03,01,09,0.00
2009,09,03,01,10,0.00
2009,09,03,01,11,0.00
2009,09,03,01,12,0.20
2009,09,03,01,13,0.10
2009,09,03,01,14,0.10
2009,09,03,01,15,0.00
2009,09,03,01,16,0.00
2009,09,03,01,17,0.00
2009,09,03,01,18,0.00
2009,09,03,01,19,1.00
2009,09,03,01,20,0.00
2009,09,03,01,21,0.00
2009,09,03,01,22,0.00
2009,09,03,01,23,0.00
2009,09,03,01,24,0.00
2009,09,03,01,25,0.00
2009,09,03,01,26,0.00
2009,09,03,01,27,0.00
2009,09,03,01,28,0.00
2009,09,03,01,29,0.00
2009,09,03,01,30,0.00
2009,09,03,01,31,0.00
2009,09,03,01,32,0.00
2009,09,03,01,33,0.10
2009,09,03,01,34,0.00
2009,09,03,01,35,0.00
2009,09,03,01,36,0.00
2009,09,03,01,37,0.00
2009,09,03,01,38,0.00
2009,09,03,01,39,0.00
2009,09,03,01,40,0.00
2009,09,03,01,41,0.00
2009,09,03,01,42,0.00
2009,09,03,01,43,0.00
2009,09,03,01,44,0.00
2009,09,03,01,45,0.00
2009,09,03,01,46,0.00
2009,09,03,01,47,0.00
2009,09,03,01,48,0.00
2009,09,03,01,49,0.00
2009,09,03,01,50,0.00
2009,09,03,01,51,0.00
2009,09,03,01,52,0.00
2009,09,03,01,53,0.00
2009,09,03,01,54,0.00
2009,09,03,01,55,0.00
2009,09,03,01,56,0.00
2009,09,03,01,57,0.00
2009,09,03,01,58,0.10
2009,09,03,01,59,0.00
2009,09,03,02,00,0.00
2009,09,03,02,01,0.00
2009,09,03,02,02,1.10
2009,09,03,02,03,2.30
2009,09,03,02,04,0.10
2009,09,03,02,05,0.00
2009,09,03,02,06,0.00
2009,09,03,02,07,0.00
2009,09,03,02,08,0.10
2009,09,03,02,09,1.30
2009,09,03,02,10,2.60
2009,09,03,02,11,1.20
2009,09,03,02,12,0.10
2009,09,03,02,13,0.00
2009,09,03,02,14,0.00
2009,09,03,02,15,0.10
2009,09,03,02,16,0.90
2009,09,03,02,17,0.00
2009,09,03,02,18,0.00
2009,09,03,02,19,0.00
2009,09,03,02,20,2.30
2009,09,03,02,21,1.90
2009,09,03,02,22,1.60
2009,09,03,02,23,3.10
2009,09,03,02,24,2.50
2009,09,03,02,25,0.60
2009,09,03,02,26,0.20
2009,09,03,02,27,3.10
2009,09,03,02,28,4.40
2009,09,03,02,29,6.20
2009,09,03,02,30,7.40
2009,09,03,02,31,4.30
2009,09,03,02,32,0.60
2009,09,03,02,33,0.10
2009,09,03,02,34,0.00
2009,09,03,02,35,0.00
2009,09,03,02,36,0.10
2009,09,03,02,37,2.30
2009,09,03,02,38,3.00
2009,09,03,02,39,0.10
2009,09,03,02,40,0.10
2009,09,03,02,41,1.60
2009,09,03,02,42,4.80
2009,09,03,02,43,6.80
2009,09,03,02,44,3.80
2009,09,03,02,45,2.20
2009,09,03,02,46,4.30
2009,09,03,02,47,2.00
2009,09,03,02,48,1.40
2009,09,03,02,49,4.70
2009,09,03,02,50,5.00
2009,09,03,02,51,6.00
2009,09,03,02,52,2.60
2009,09,03,02,53,4.20
2009,09,03,02,54,4.30
2009,09,03,02,55,0.50
2009,09,03,02,56,3.00
2009,09,03,02,57,5.40
2009,09,03,02,58,0.20
2009,09,03,02,59,0.50
2009,09,03,03,00,0.90
2009,09,03,03,01,1.00
2009,09,03,03,02,0.80
2009,09,03,03,03,1.10
2009,09,03,03,04,0.20
2009,09,03,03,05,0.00
2009,09,03,03,06,0.10
2009,09,03,03,07,0.00
2009,09,03,03,08,0.30
2009,09,03,03,09,2.00
2009,09,03,03,10,0.00
2009,09,03,03,11,0.10
2009,09,03,03,12,0.00
2009,09,03,03,13,0.50
2009,09,03,03,14,0.00
2009,09,03,03,15,1.70
2009,09,03,03,16,3.50
2009,09,03,03,17,1.00
2009,09,03,03,18,1.20
2009,09,03,03,19,1.40
2009,09,03,03,20,0.00
2009,09,03,03,21,0.30
2009,09,03,03,22,0.00
2009,09,03,03,23,2.10
2009,09,03,03,24,10.70
2009,09,03,03,25,7.30
2009,09,03,03,26,15.40
2009,09,03,03,27,22.80
2009,09,03,03,28,25.10
2009,09,03,03,29,15.80
2009,09,03,03,30,10.20
2009,09,03,03,31,18.70
2009,09,03,03,32,14.40
2009,09,03,03,33,21.10
2009,09,03,03,34,18.20
2009,09,03,03,35,18.40
2009,09,03,03,36,15.70
2009,09,03,03,37,26.60
2009,09,03,03,38,22.80
2009,09,03,03,39,25.00
2009,09,03,03,40,20.60
2009,09,03,03,41,22.30
2009,09,03,03,42,26.50
2009,09,03,03,43,24.90
2009,09,03,03,44,23.80
2009,09,03,03,45,28.60
2009,09,03,03,46,22.40
2009,09,03,03,47,30.50
2009,09,03,03,48,28.50
2009,09,03,03,49,32.80
2009,09,03,03,50,20.50
2009,09,03,03,51,21.10
2009,09,03,03,52,29.30
2009,09,03,03,53,26.90
2009,09,03,03,54,23.90
2009,09,03,03,55,20.10
2009,09,03,03,56,44.00
2009,09,03,03,57,33.50
2009,09,03,03,58,33.80
2009,09,03,03,59,36.10
2009,09,03,04,00,23.50
2009,09,03,04,01,30.50
2009,09,03,04,02,21.40
2009,09,03,04,03,23.60
2009,09,03,04,04,29.10
2009,09,03,04,08,23.10
2009,09,03,04,09,22.90
2009,09,03,04,12,29.80
2009,09,03,04,14,20.90
2009,09,03,04,15,21.10
2009,09,03,04,18,21.90
2009,09,03,04,21,26.40
2009,09,03,04,23,18.50
2009,09,03,04,25,22.20
2009,09,03,04,26,30.40
2009,09,03,04,27,30.60
2009,09,03,04,28,26.10
2009,09,03,04,29,21.50
2009,09,03,04,30,21.40
2009,09,03,04,31,19.30
2009,09,03,04,32,25.30
2009,09,03,04,33,20.40
2009,09,03,04,34,15.60
2009,09,03,04,35,30.00
2009,09,03,04,36,25.20
2009,09,03,04,37,25.20
2009,09,03,04,38,17.90
2009,09,03,04,39,10.70
2009,09,03,04,40,16.40
2009,09,03,04,41,16.10
2009,09,03,04,42,14.70
2009,09,03,04,43,9.90
2009,09,03,04,44,10.10
2009,09,03,04,45,9.70
2009,09,03,04,46,13.30
2009,09,03,04,47,20.40
2009,09,03,04,48,20.60
2009,09,03,04,49,10.20
2009,09,03,04,50,9.90
2009,09,03,04,51,4.30
2009,09,03,04,52,7.10
2009,09,03,04,53,13.40
2009,09,03,04,54,14.20
2009,09,03,04,55,13.60
2009,09,03,04,56,3.70
2009,09,03,04,57,11.10
2009,09,03,04,58,12.40
2009,09,03,04,59,9.70
2009,09,03,05,00,7.10
2009,09,03,05,01,9.10
2009,09,03,05,02,3.50
2009,09,03,05,03,7.10
2009,09,03,05,04,3.50
2009,09,03,05,05,6.40
2009,09,03,05,06,4.40
2009,09,03,05,07,0.50
2009,09,03,05,08,0.10
2009,09,03,05,09,3.20
2009,09,03,05,10,0.70
2009,09,03,05,11,2.10
2009,09,03,05,12,4.30
2009,09,03,05,13,3.30
2009,09,03,05,14,1.50
2009,09,03,05,15,7.10
2009,09,03,05,16,7.10
2009,09,03,05,17,4.40
2009,09,03,05,18,0.00
2009,09,03,05,19,7.60
2009,09,03,05,20,4.20
2009,09,03,05,21,3.40
2009,09,03,05,22,3.50
2009,09,03,05,23,4.30
2009,09,03,05,24,1.80
2009,09,03,05,25,2.60
2009,09,03,05,26,1.30
2009,09,03,05,27,0.30
2009,09,03,05,28,0.10
2009,09,03,05,29,2.20
2009,09,03,05,30,0.70
2009,09,03,05,31,1.00
2009,09,03,05,32,1.50
2009,09,03,05,33,1.20
2009,09,03,05,34,0.00
2009,09,03,05,35,0.00
2009,09,03,05,36,0.20
2009,09,03,05,37,1.50
2009,09,03,05,38,0.20
2009,09,03,05,39,0.00
2009,09,03,05,40,0.00
2009,09,03,05,41,0.00
2009,09,03,05,42,0.00
2009,09,03,05,43,0.80
2009,09,03,05,44,0.60
2009,09,03,05,45,0.20
2009,09,03,05,46,0.00
2009,09,03,05,47,0.00
2009,09,03,05,48,0.00
2009,09,03,05,49,0.20
2009,09,03,05,50,0.10
2009,09,03,05,51,0.70
2009,09,03,05,52,0.20
2009,09,03,05,53,0.20
2009,09,03,05,54,0.60
2009,09,03,05,55,0.00
2009,09,03,05,56,0.10
2009,09,03,05,57,0.00
2009,09,03,05,58,0.00
2009,09,03,05,59,0.00
2009,09,03,06,00,0.00
2009,09,03,06,01,0.20
2009,09,03,06,02,0.00
2009,09,03,06,03,0.00
2009,09,03,06,04,0.10
2009,09,03,06,05,0.00
2009,09,03,06,06,2.10
2009,09,03,06,07,0.00
2009,09,03,06,08,0.10
2009,09,03,06,09,0.10
2009,09,03,06,10,2.90
2009,09,03,06,11,0.30
2009,09,03,06,12,0.30
2009,09,03,06,13,0.00
2009,09,03,06,14,0.10
2009,09,03,06,15,0.10
2009,09,03,06,16,0.10
2009,09,03,06,17,0.00
2009,09,03,06,18,0.20
2009,09,03,06,19,1.50
2009,09,03,06,20,0.50
2009,09,03,06,21,0.00
2009,09,03,06,22,0.10
2009,09,03,06,23,2.10
2009,09,03,06,24,2.30
2009,09,03,06,25,1.90
2009,09,03,06,26,0.00
2009,09,03,06,27,0.40
2009,09,03,06,28,0.10
2009,09,03,06,29,0.00
2009,09,03,06,30,2.70
2009,09,03,06,31,1.10
2009,09,03,06,32,0.20
2009,09,03,06,33,0.10
2009,09,03,06,34,0.00
2009,09,03,06,35,1.80
2009,09,03,06,36,3.30
2009,09,03,06,37,0.10
2009,09,03,06,38,1.50
2009,09,03,06,39,0.90
2009,09,03,06,40,0.00
2009,09,03,06,41,0.10
2009,09,03,06,42,2.80
2009,09,03,06,43,0.40
2009,09,03,06,44,0.00
2009,09,03,06,45,0.10
2009,09,03,06,46,0.60
2009,09,03,06,47,0.00
2009,09,03,06,48,0.00
2009,09,03,06,49,0.00
2009,09,03,06,50,1.10
2009,09,03,06,51,0.00
2009,09,03,06,52,0.40
2009,09,03,06,53,2.20
2009,09,03,06,54,3.50
2009,09,03,06,55,5.30
2009,09,03,06,56,0.30
2009,09,03,06,57,0.10
2009,09,03,06,58,0.00
2009,09,03,06,59,0.00
2009,09,03,07,00,4.40
2009,09,03,07,01,0.00
2009,09,03,07,02,0.00
2009,09,03,07,03,0.20
2009,09,03,07,04,6.60
2009,09,03,07,05,3.10
2009,09,03,07,06,0.90
2009,09,03,07,07,0.60
2009,09,03,07,08,0.00
2009,09,03,07,09,1.50
2009,09,03,07,10,0.30
2009,09,03,07,11,0.20
2009,09,03,07,12,0.00
2009,09,03,07,13,4.50
2009,09,03,07,14,4.70
2009,09,03,07,15,6.30
2009,09,03,07,16,7.20
2009,09,03,07,17,5.50
2009,09,03,07,18,3.70
2009,09,03,07,19,5.40
2009,09,03,07,20,6.00
2009,09,03,07,21,1.00
2009,09,03,07,22,2.70
2009,09,03,07,23,1.70
2009,09,03,07,24,4.10
2009,09,03,07,25,2.90
2009,09,03,07,26,5.50
2009,09,03,07,27,5.40
2009,09,03,07,28,2.80
2009,09,03,07,29,3.90
2009,09,03,07,30,1.50
2009,09,03,07,31,2.70
2009,09,03,07,32,3.10
2009,09,03,07,33,3.00
2009,09,03,07,34,3.60
2009,09,03,07,35,0.90
2009,09,03,07,36,3.60
2009,09,03,07,37,4.10
2009,09,03,07,38,4.80
2009,09,03,07,39,8.50
2009,09,03,07,40,8.70
2009,09,03,07,41,8.20
2009,09,03,07,42,8.50
2009,09,03,07,43,6.00
2009,09,03,07,44,5.60
2009,09,03,07,45,6.00
2009,09,03,07,46,1.60
2009,09,03,07,47,5.70
2009,09,03,07,48,5.60
2009,09,03,07,49,6.30
2009,09,03,07,50,8.70
2009,09,03,07,51,11.70
2009,09,03,07,52,6.40
2009,09,03,07,53,8.60
2009,09,03,07,54,9.20
2009,09,03,07,55,9.90
2009,09,03,07,56,6.50
2009,09,03,07,57,4.90
2009,09,03,07,58,4.30
2009,09,03,07,59,4.00
2009,09,03,08,00,6.50
2009,09,03,08,01,3.30
2009,09,03,08,02,8.50
2009,09,03,08,03,10.30
2009,09,03,08,04,4.70
2009,09,03,08,05,7.20
2009,09,03,08,06,7.00
2009,09,03,08,07,12.00
2009,09,03,08,08,16.70
2009,09,03,08,09,10.90
2009,09,03,08,10,11.20
2009,09,03,08,11,14.40
2009,09,03,08,12,10.50
2009,09,03,08,13,10.70
2009,09,03,08,14,9.20
2009,09,03,08,15,14.40
2009,09,03,08,16,11.60
2009,09,03,08,17,9.70
2009,09,03,08,18,11.20
2009,09,03,08,19,9.80
2009,09,03,08,20,11.80
2009,09,03,08,21,4.50
2009,09,03,08,22,10.00
2009,09,03,08,23,11.00
2009,09,03,08,24,10.90
2009,09,03,08,25,6.40
2009,09,03,08,26,5.80
2009,09,03,08,27,4.80
2009,09,03,08,28,9.80
2009,09,03,08,29,8.40
2009,09,03,08,30,10.70
2009,09,03,08,31,11.60
2009,09,03,08,32,9.20
2009,09,03,08,33,7.50
2009,09,03,08,34,11.10
2009,09,03,08,35,8.90
2009,09,03,08,36,11.30
2009,09,03,08,37,11.90
2009,09,03,08,38,11.90
2009,09,03,08,39,11.40
2009,09,03,08,40,10.70
2009,09,03,08,41,14.20
2009,09,03,08,42,16.60
2009,09,03,08,43,9.30
2009,09,03,08,44,12.00
2009,09,03,08,45,9.70
2009,09,03,08,46,9.50
2009,09,03,08,47,7.30
2009,09,03,08,48,12.60
2009,09,03,08,49,9.10
2009,09,03,08,50,8.90
2009,09,03,08,51,5.70
2009,09,03,08,52,7.30
2009,09,03,08,53,6.40
2009,09,03,08,54,9.30
2009,09,03,08,55,4.30
2009,09,03,08,56,7.00
2009,09,03,08,57,6.30
2009,09,03,08,58,6.00
2009,09,03,08,59,5.40
2009,09,03,09,00,3.80
2009,09,03,09,01,2.20
2009,09,03,09,02,6.00
2009,09,03,09,03,5.00
2009,09,03,09,04,4.90
2009,09,03,09,05,4.20
2009,09,03,09,06,2.60
2009,09,03,09,07,2.10
2009,09,03,09,08,3.90
2009,09,03,09,09,4.20
2009,09,03,09,10,6.40
2009,09,03,09,11,5.30
2009,09,03,09,12,4.80
2009,09,03,09,13,4.60
2009,09,03,09,14,4.10
2009,09,03,09,15,1.20
2009,09,03,09,16,0.30
2009,09,03,09,17,0.30
2009,09,03,09,18,3.90
2009,09,03,09,19,4.70
2009,09,03,09,20,5.40
2009,09,03,09,21,6.40
2009,09,03,09,22,4.80
2009,09,03,09,23,7.90
2009,09,03,09,24,7.70
2009,09,03,09,25,9.60
2009,09,03,09,26,10.30
2009,09,03,09,27,4.10
2009,09,03,09,28,7.10
2009,09,03,09,29,8.00
2009,09,03,09,30,6.10
2009,09,03,09,31,6.30
2009,09,03,09,32,12.30
2009,09,03,09,33,14.40
2009,09,03,09,34,13.70
2009,09,03,09,35,13.70
2009,09,03,09,36,14.70
2009,09,03,09,37,11.90
2009,09,03,09,38,13.10
2009,09,03,09,39,9.50
2009,09,03,09,40,8.80
2009,09,03,09,41,9.10
2009,09,03,09,42,11.10
2009,09,03,09,43,10.30
2009,09,03,09,44,12.30
2009,09,03,09,45,13.00
2009,09,03,09,46,13.00
2009,09,03,09,47,15.20
2009,09,03,09,48,15.80
2009,09,03,09,49,16.40
2009,09,03,09,50,14.80
2009,09,03,09,51,11.10
2009,09,03,09,52,16.20
2009,09,03,09,53,15.80
2009,09,03,09,54,10.50
2009,09,03,09,55,14.90
2009,09,03,09,56,11.20
2009,09,03,09,57,12.70
2009,09,03,09,58,15.90
2009,09,03,09,59,13.20
2009,09,03,10,00,15.00
2009,09,03,10,01,14.60
2009,09,03,10,02,15.10
2009,09,03,10,03,11.70
2009,09,03,10,04,13.70
2009,09,03,10,05,17.70
2009,09,03,10,06,16.20
2009,09,03,10,07,21.40
2009,09,03,10,08,14.90
2009,09,03,10,09,18.30
2009,09,03,10,10,10.40
2009,09,03,10,11,10.80
2009,09,03,10,12,11.10
2009,09,03,10,13,10.60
2009,09,03,10,14,14.60
2009,09,03,10,15,10.00
2009,09,03,10,16,9.50
2009,09,03,10,17,10.60
2009,09,03,10,18,13.30
2009,09,03,10,19,9.20
2009,09,03,10,20,10.60
2009,09,03,10,21,12.30
2009,09,03,10,22,9.90
2009,09,03,10,23,9.20
2009,09,03,10,24,13.10
2009,09,03,10,25,9.60
2009,09,03,10,26,11.40
2009,09,03,10,27,8.30
2009,09,03,10,28,7.40
2009,09,03,10,29,10.50
2009,09,03,10,30,9.30
2009,09,03,10,31,8.70
2009,09,03,10,32,5.80
2009,09,03,10,33,7.80
2009,09,03,10,34,6.90
2009,09,03,10,35,6.80
2009,09,03,10,36,8.50
2009,09,03,10,37,6.60
2009,09,03,10,38,6.70
2009,09,03,10,39,6.40
2009,09,03,10,40,5.60
2009,09,03,10,41,5.20
2009,09,03,10,42,3.10
2009,09,03,10,43,4.00
2009,09,03,10,44,6.40
2009,09,03,10,45,3.00
2009,09,03,10,46,3.70
2009,09,03,10,47,5.40
2009,09,03,10,48,4.30
2009,09,03,10,49,4.50
2009,09,03,10,50,4.00
2009,09,03,10,51,5.50
2009,09,03,10,52,6.40
2009,09,03,10,53,3.40
2009,09,03,10,54,3.40
2009,09,03,10,55,5.90
2009,09,03,10,56,4.60
2009,09,03,10,57,5.40
2009,09,03,10,58,4.40
2009,09,03,10,59,4.00
2009,09,03,11,00,6.10
2009,09,03,11,01,4.70
2009,09,03,11,02,5.70
2009,09,03,11,03,6.40
2009,09,03,11,04,4.00
2009,09,03,11,05,4.20
2009,09,03,11,06,5.60
2009,09,03,11,07,8.30
2009,09,03,11,08,7.60
2009,09,03,11,09,3.90
2009,09,03,11,10,4.90
2009,09,03,11,11,7.70
2009,09,03,11,12,9.50
2009,09,03,11,13,6.70
2009,09,03,11,14,5.90
2009,09,03,11,15,8.40
2009,09,03,11,16,4.60
2009,09,03,11,17,5.60
2009,09,03,11,18,4.30
2009,09,03,11,19,5.90
2009,09,03,11,20,5.70
2009,09,03,11,21,10.20
2009,09,03,11,22,10.80
2009,09,03,11,23,9.30
2009,09,03,11,24,12.30
2009,09,03,11,25,8.90
2009,09,03,11,26,9.10
2009,09,03,11,27,6.60
2009,09,03,11,28,9.10
2009,09,03,11,29,6.30
2009,09,03,11,30,7.70
2009,09,03,11,31,9.30
2009,09,03,11,32,9.90
2009,09,03,11,33,13.60
2009,09,03,11,34,8.90
2009,09,03,11,35,9.50
2009,09,03,11,36,7.70
2009,09,03,11,37,2.00
2009,09,03,11,38,4.20
2009,09,03,11,39,0.00
2009,09,03,11,40,3.00
2009,09,03,11,41,6.70
2009,09,03,11,42,8.60
2009,09,03,11,43,4.40
2009,09,03,11,44,4.10
2009,09,03,11,45,3.00
2009,09,03,11,46,8.70
2009,09,03,11,47,6.70
2009,09,03,11,48,11.30
2009,09,03,11,49,16.40
2009,09,03,11,50,6.00
2009,09,03,11,51,3.50
2009,09,03,11,52,4.20
2009,09,03,11,53,5.60
2009,09,03,11,54,7.10
2009,09,03,11,55,8.20
2009,09,03,11,56,25.90
2009,09,03,11,57,23.10
2009,09,03,11,58,14.10
2009,09,03,11,59,10.10
2009,09,03,12,00,13.90
2009,09,03,12,01,17.80
2009,09,03,12,02,16.30
2009,09,03,12,03,14.20
2009,09,03,12,04,19.40
2009,09,03,12,05,11.80
2009,09,03,12,06,9.90
2009,09,03,12,07,16.70
2009,09,03,12,08,17.70
2009,09,03,12,09,10.50
2009,09,03,12,10,17.20
2009,09,03,12,11,17.70
2009,09,03,12,12,7.50
2009,09,03,12,13,4.50
2009,09,03,12,14,6.40
2009,09,03,12,15,18.80
2009,09,03,12,16,12.90
2009,09,03,12,17,8.50
2009,09,03,12,18,9.10
2009,09,03,12,19,11.40
2009,09,03,12,20,6.70
2009,09,03,12,21,4.80
2009,09,03,12,22,7.20
2009,09,03,12,23,8.30
2009,09,03,12,24,7.40
2009,09,03,12,25,3.40
2009,09,03,12,26,13.40
2009,09,03,12,27,18.50
2009,09,03,12,28,17.80
2009,09,03,12,29,11.80
2009,09,03,12,30,10.90
2009,09,03,12,31,6.10
2009,09,03,12,32,4.30
2009,09,03,12,33,16.10
2009,09,03,12,34,10.60
2009,09,03,12,35,11.40
2009,09,03,12,36,9.10
2009,09,03,12,37,9.50
2009,09,03,12,38,8.20
2009,09,03,12,39,4.70
2009,09,03,12,40,15.80
2009,09,03,12,41,16.80
2009,09,03,12,42,8.90
2009,09,03,12,43,15.70
2009,09,03,12,44,11.00
2009,09,03,12,45,6.70
2009,09,03,12,46,12.40
2009,09,03,12,47,8.80
2009,09,03,12,48,9.70
2009,09,03,12,49,10.50
2009,09,03,12,50,12.50
2009,09,03,12,51,13.80
2009,09,03,12,52,13.00
2009,09,03,12,53,8.60
2009,09,03,12,54,10.50
2009,09,03,12,55,0.60
2009,09,03,12,56,4.00
2009,09,03,12,57,4.00
2009,09,03,12,58,12.00
2009,09,03,12,59,13.00
2009,09,03,13,00,6.30
2009,09,03,13,01,2.60
2009,09,03,13,02,8.00
2009,09,03,13,03,11.30
2009,09,03,13,04,14.20
2009,09,03,13,05,6.10
2009,09,03,13,06,3.60
2009,09,03,13,07,7.60
2009,09,03,13,08,4.70
2009,09,03,13,09,8.80
2009,09,03,13,10,13.00
2009,09,03,13,11,9.20
2009,09,03,13,12,13.40
2009,09,03,13,13,10.10
2009,09,03,13,14,4.60
2009,09,03,13,15,7.70
2009,09,03,13,16,15.40
2009,09,03,13,17,8.90
2009,09,03,13,18,8.30
2009,09,03,13,19,6.90
2009,09,03,13,20,8.30
2009,09,03,13,21,12.30
2009,09,03,13,22,10.80
2009,09,03,13,23,8.40
2009,09,03,13,24,5.10
2009,09,03,13,25,8.20
2009,09,03,13,26,7.50
2009,09,03,13,27,12.50
2009,09,03,13,28,7.40
2009,09,03,13,29,13.60
2009,09,03,13,30,7.10
2009,09,03,13,31,9.70
2009,09,03,13,32,5.20
2009,09,03,13,33,14.70
2009,09,03,13,34,7.90
2009,09,03,13,35,6.80
2009,09,03,13,36,12.40
2009,09,03,13,37,6.60
2009,09,03,13,38,12.10
2009,09,03,13,39,9.10
2009,09,03,13,40,6.60
2009,09,03,13,41,10.70
2009,09,03,13,42,10.80
2009,09,03,13,43,11.90
2009,09,03,13,44,9.20
2009,09,03,13,45,11.70
2009,09,03,13,46,13.10
2009,09,03,13,47,8.80
2009,09,03,13,48,7.30
2009,09,03,13,49,5.90
2009,09,03,13,50,3.40
2009,09,03,13,51,3.90
2009,09,03,13,52,12.30
2009,09,03,13,53,3.60
2009,09,03,13,54,4.10
2009,09,03,13,55,5.40
2009,09,03,13,56,5.60
2009,09,03,13,57,7.20
2009,09,03,13,58,11.20
2009,09,03,13,59,11.90
2009,09,03,14,00,11.50
2009,09,03,14,01,10.20
2009,09,03,14,02,8.50
2009,09,03,14,03,7.50
2009,09,03,14,04,9.90
2009,09,03,14,05,6.70
2009,09,03,14,06,9.80
2009,09,03,14,07,9.20
2009,09,03,14,08,5.40
2009,09,03,14,09,5.70
2009,09,03,14,10,2.70
2009,09,03,14,11,9.20
2009,09,03,14,12,8.60
2009,09,03,14,13,4.50
2009,09,03,14,14,4.10
2009,09,03,14,15,13.40
2009,09,03,14,16,1.30
2009,09,03,14,17,3.10
2009,09,03,14,18,5.30
2009,09,03,14,19,5.60
2009,09,03,14,20,3.30
2009,09,03,14,21,3.90
2009,09,03,14,22,7.10
2009,09,03,14,23,8.40
2009,09,03,14,24,6.70
2009,09,03,14,25,6.60
2009,09,03,14,26,4.30
2009,09,03,14,27,10.20
2009,09,03,14,28,8.70
2009,09,03,14,29,8.70
2009,09,03,14,30,10.30
2009,09,03,14,31,10.10
2009,09,03,14,32,11.40
2009,09,03,14,33,13.20
2009,09,03,14,34,11.30
2009,09,03,14,35,9.50
2009,09,03,14,36,7.10
2009,09,03,14,37,7.60
2009,09,03,14,38,10.50
2009,09,03,14,39,13.60
2009,09,03,14,40,11.00
2009,09,03,14,41,17.00
2009,09,03,14,42,13.60
2009,09,03,14,43,11.30
2009,09,03,14,44,12.90
2009,09,03,14,45,15.50
2009,09,03,14,46,15.10
2009,09,03,14,47,14.30
2009,09,03,14,48,12.40
2009,09,03,14,49,9.70
2009,09,03,14,50,10.50
2009,09,03,14,51,12.60
2009,09,03,14,52,12.60
2009,09,03,14,53,14.50
2009,09,03,14,54,11.60
2009,09,03,14,55,13.50
2009,09,03,14,56,16.30
2009,09,03,14,57,13.80
2009,09,03,14,58,16.40
2009,09,03,14,59,12.60
2009,09,03,15,00,12.10
2009,09,03,15,01,11.70
2009,09,03,15,02,9.50
2009,09,03,15,03,13.20
2009,09,03,15,04,14.90
2009,09,03,15,05,9.30
2009,09,03,15,06,10.80
2009,09,03,15,07,10.90
2009,09,03,15,08,6.30
2009,09,03,15,09,10.90
2009,09,03,15,10,8.50
2009,09,03,15,11,7.90
2009,09,03,15,12,9.60
2009,09,03,15,13,5.90
2009,09,03,15,14,5.90
2009,09,03,15,15,6.80
2009,09,03,15,16,6.00
2009,09,03,15,17,5.40
2009,09,03,15,18,5.00
2009,09,03,15,19,9.30
2009,09,03,15,20,6.10
2009,09,03,15,21,4.80
2009,09,03,15,22,4.80
2009,09,03,15,23,4.80
2009,09,03,15,24,4.80
2009,09,03,15,25,4.80
2009,09,03,15,26,5.30
2009,09,03,15,27,8.70
2009,09,03,15,28,10.40
2009,09,03,15,29,9.10
2009,09,03,15,30,13.20
2009,09,03,15,31,8.20
2009,09,03,15,32,9.30
2009,09,03,15,33,7.20
2009,09,03,15,34,7.40
2009,09,03,15,35,10.00
2009,09,03,15,36,11.00
2009,09,03,15,37,9.20
2009,09,03,15,38,11.70
2009,09,03,15,39,8.70
2009,09,03,15,40,7.20
2009,09,03,15,41,7.70
2009,09,03,15,42,8.60
2009,09,03,15,43,7.60
2009,09,03,15,44,8.70
2009,09,03,15,45,10.60
2009,09,03,15,46,12.00
2009,09,03,15,47,10.20
2009,09,03,15,48,9.50
2009,09,03,15,49,10.70
2009,09,03,15,50,9.20
2009,09,03,15,51,8.30
2009,09,03,15,52,7.80
2009,09,03,15,53,6.00
2009,09,03,15,54,11.40
2009,09,03,15,55,5.00
2009,09,03,15,56,5.80
2009,09,03,15,57,7.90
2009,09,03,15,58,8.20
2009,09,03,15,59,7.40
2009,09,03,16,00,7.00
2009,09,03,16,01,8.50
2009,09,03,16,02,10.10
2009,09,03,16,03,11.90
2009,09,03,16,04,10.90
2009,09,03,16,05,13.30
2009,09,03,16,06,10.20
2009,09,03,16,07,13.70
2009,09,03,16,08,8.00
2009,09,03,16,09,9.70
2009,09,03,16,10,9.40
2009,09,03,16,11,9.70
2009,09,03,16,12,9.20
2009,09,03,16,13,5.60
2009,09,03,16,14,7.10
2009,09,03,16,15,9.40
2009,09,03,16,16,6.20
2009,09,03,16,17,7.40
2009,09,03,16,18,6.60
2009,09,03,16,19,10.50
2009,09,03,16,20,8.20
2009,09,03,16,21,10.30
2009,09,03,16,22,7.80
2009,09,03,16,23,10.20
2009,09,03,16,24,9.90
2009,09,03,16,25,6.00
2009,09,03,16,26,5.90
2009,09,03,16,27,7.40
2009,09,03,16,28,9.30
2009,09,03,16,29,6.30
2009,09,03,16,30,9.40
2009,09,03,16,31,6.40
2009,09,03,16,32,3.60
2009,09,03,16,33,5.70
2009,09,03,16,34,8.60
2009,09,03,16,35,7.80
2009,09,03,16,36,8.90
2009,09,03,16,37,10.50
2009,09,03,16,38,5.40
2009,09,03,16,39,10.50
2009,09,03,16,40,8.10
2009,09,03,16,41,7.10
2009,09,03,16,42,7.10
2009,09,03,16,43,5.90
2009,09,03,16,44,4.50
2009,09,03,16,45,6.00
2009,09,03,16,46,5.70
2009,09,03,16,47,1.20
2009,09,03,16,48,3.50
2009,09,03,16,49,5.60
2009,09,03,16,50,7.60
2009,09,03,16,51,8.50
2009,09,03,16,52,13.20
2009,09,03,16,53,10.10
2009,09,03,16,54,5.40
2009,09,03,16,55,6.50
2009,09,03,16,56,2.60
2009,09,03,16,57,4.80
2009,09,03,16,58,5.00
2009,09,03,16,59,7.00
2009,09,03,17,00,5.80
2009,09,03,17,01,7.20
2009,09,03,17,02,8.20
2009,09,03,17,03,2.70
2009,09,03,17,04,8.50
2009,09,03,17,05,1.60
2009,09,03,17,06,7.00
2009,09,03,17,07,7.20
2009,09,03,17,08,9.90
2009,09,03,17,09,8.40
2009,09,03,17,10,5.70
2009,09,03,17,11,7.40
2009,09,03,17,12,5.70
2009,09,03,17,13,12.50
2009,09,03,17,14,7.50
2009,09,03,17,15,6.40
2009,09,03,17,16,3.60
2009,09,03,17,17,5.50
2009,09,03,17,18,5.00
2009,09,03,17,19,3.50
2009,09,03,17,20,3.80
2009,09,03,17,21,5.30
2009,09,03,17,22,4.30
2009,09,03,17,23,8.20
2009,09,03,17,24,7.60
2009,09,03,17,25,10.20
2009,09,03,17,26,9.30
2009,09,03,17,27,12.70
2009,09,03,17,28,10.80
2009,09,03,17,29,7.10
2009,09,03,17,30,7.60
2009,09,03,17,31,6.30
2009,09,03,17,32,9.80
2009,09,03,17,33,7.20
2009,09,03,17,34,8.40
2009,09,03,17,35,8.20
2009,09,03,17,36,9.30
2009,09,03,17,37,8.30
2009,09,03,17,38,10.50
2009,09,03,17,39,8.50
2009,09,03,17,40,11.40
2009,09,03,17,41,5.90
2009,09,03,17,42,7.90
2009,09,03,17,43,7.70
2009,09,03,17,44,6.70
2009,09,03,17,45,7.20
2009,09,03,17,46,7.50
2009,09,03,17,47,7.80
2009,09,03,17,48,10.10
2009,09,03,17,49,9.00
2009,09,03,17,50,8.70
2009,09,03,17,51,7.90
2009,09,03,17,52,6.60
2009,09,03,17,53,9.80
2009,09,03,17,54,6.20
2009,09,03,17,55,8.60
2009,09,03,17,56,8.90
2009,09,03,17,57,8.10
2009,09,03,17,58,11.50
2009,09,03,17,59,12.70
2009,09,03,18,00,10.90
2009,09,03,18,01,12.40
2009,09,03,18,02,9.80
2009,09,03,18,03,12.80
2009,09,03,18,04,9.90
2009,09,03,18,05,13.40